Theta_e
319 314 311 312 298 295 290 296 299 296 297 297 300 299 296 294 294 297 303 303 305 306 308 309 319 320 321 322 322 323 323 324 325 325 326 327 329 331 334 337 339 341 342 343 341 340 339 340 341
315 314 311 305 293 289 290 297 297 299 298 298 298 299 296 293 297 298 299 304 305 307 306 311 317 318 319 320 321 321 322 322 323 324 325 325 326 327 328 331 333 337 340 342 342 342 340 340 341
312 310 301 298 291 288 292 296 296 299 298 300 295 297 294 293 297 297 301 303 303 304 306 310 316 317 318 318 319 320 321 321 322 323 323 323 324 324 325 326 327 330 334 339 342 342 341 342 340
305 304 296 289 285 287 294 298 298 297 298 298 295 292 294 297 296 298 302 302 301 302 304 308 314 316 316 317 318 319 319 320 321 321 321 322 322 321 322 322 323 325 328 332 336 340 340 340 340
303 298 289 285 284 287 293 300 297 296 295 295 295 291 292 296 299 299 299 301 300 301 302 304 312 313 314 315 316 316 317 318 318 318 319 319 319 319 320 320 320 321 323 327 333 335 337 339 338
299 296 288 284 283 286 288 295 296 293 294 293 292 289 290 296 296 297 298 299 300 300 302 302 306 309 311 312 314 314 315 316 316 316 317 317 316 317 317 317 318 319 320 322 324 328 329 334 337
297 291 286 283 284 286 289 292 293 293 290 290 294 288 290 293 296 297 297 298 299 300 300 300 301 304 307 309 311 312 313 313 314 314 314 314 313 313 314 315 315 317 318 319 321 323 326 330 334
296 291 284 283 284 286 289 289 291 291 289 292 292 287 286 292 296 296 297 297 298 299 299 299 300 301 301 302 309 310 312 313 313 313 312 312 310 310 310 311 312 315 316 316 316 320 323 327 329
296 288 285 286 286 288 289 289 290 291 290 290 291 290 292 295 296 295 295 295 296 298 298 298 298 300 301 303 306 307 308 310 310 310 310 309 307 306 306 309 311 313 314 314 314 317 319 322 325
293 288 288 288 288 286 289 289 290 288 287 287 289 292 294 294 293 293 292 293 294 295 296 298 298 299 300 304 303 303 305 305 306 305 305 305 304 305 308 307 310 310 311 312 313 315 318 318 324
288 288 287 288 289 290 289 287 289 288 285 288 289 290 292 292 292 293 292 293 293 295 296 298 298 299 299 300 302 303 303 305 306 304 304 304 304 305 305 306 307 307 308 309 308 309 312 314 319
288 288 289 290 290 290 289 289 287 287 287 291 291 292 291 291 291 292 292 293 294 295 296 297 297 298 299 301 301 302 303 305 303 304 304 302 302 302 303 304 306 307 308 308 307 307 310 313 319
287 287 289 289 290 289 290 286 287 287 288 291 292 293 291 291 291 292 293 294 295 294 295 296 297 297 299 300 303 304 303 303 302 302 302 301 301 301 303 305 307 307 308 308 306 306 308 311 317
287 288 287 288 288 289 288 286 287 287 289 290 291 290 290 291 292 291 293 293 294 295 295 296 297 297 298 299 302 302 302 302 299 299 299 299 300 301 304 305 306 309 309 309 309 306 307 309 315
288 285 285 285 286 286 288 285 286 288 289 289 289 288 290 291 292 291 292 293 293 294 294 295 297 297 297 298 301 300 299 300 297 296 296 296 297 298 302 303 303 305 307 308 310 310 309 313 319
285 282 279 282 287 286 285 280 284 288 287 287 287 286 289 291 292 292 293 293 293 293 293 294 297 295 296 296 297 298 297 296 295 294 294 294 295 296 298 298 299 303 303 304 306 310 310 309 312
282 277 278 282 287 286 283 279 285 287 287 286 285 285 288 289 290 291 292 292 293 293 293 293 293 293 295 296 296 295 295 294 294 292 292 292 293 294 295 295 296 299 299 299 301 305 305 302 303
277 277 281 280 285 284 282 282 284 287 287 286 285 285 287 289 290 292 293 293 293 293 292 292 293 292 293 294 295 294 292 292 291 290 290 290 291 292 292 293 292 294 293 294 297 299 302 300 299
282 281 278 281 285 285 283 284 285 286 287 286 285 284 286 288 291 292 293 292 293 292 290 290 290 290 291 291 290 291 290 289 289 290 290 289 289 290 290 290 290 290 290 290 292 296 297 297 299
283 279 279 282 284 284 282 283 286 287 288 289 288 286 287 288 289 290 291 291 292 290 289 289 289 290 290 291 290 290 289 289 289 289 289 288 288 288 289 289 288 288 288 287 287 290 293 294 296
282 280 279 280 283 283 281 280 282 284 286 290 290 288 288 289 289 290 290 289 289 288 288 289 289 289 289 291 290 289 289 287 286 286 286 287 287 287 287 287 287 287 287 285 285 286 287 288 292
280 285 284 284 280 276 280 274 280 281 283 285 288 286 288 289 291 290 290 289 289 288 288 289 289 290 290 290 287 286 285 283 285 285 285 286 286 286 286 286 286 286 286 285 285 285 284 287 286
283 287 285 283 280 278 278 275 279 283 283 286 287 286 288 290 290 290 290 289 288 288 287 289 289 289 289 288 287 285 283 284 284 284 283 284 284 284 285 285 285 285 285 284 284 283 282 283 285
288 285 284 281 279 274 281 277 277 280 285 287 287 286 288 289 290 291 290 289 288 288 288 289 288 288 288 287 286 284 283 282 282 282 282 282 283 283 283 284 284 284 284 283 283 283 283 282 283
286 282 278 276 272 276 277 274 282 287 286 287 286 285 288 290 289 290 288 288 288 288 288 289 288 286 286 286 285 284 284 283 282 282 282 282 282 282 282 282 282 282 283 283 283 283 282 282 281
282 282 280 273 271 274 278 275 281 285 287 288 287 286 288 289 290 289 288 288 289 289 289 288 287 286 285 285 284 284 284 283 283 282 282 281 282 282 282 282 282 282 282 282 282 282 283 282 282
282 279 284 279 269 273 278 281 286 283 284 285 284 286 287 288 289 288 288 289 289 289 289 288 287 286 285 284 283 283 283 282 282 282 282 281 282 283 281 281 281 281 281 281 282 281 281 282 282
283 284 278 277 270 268 275 277 280 284 283 283 283 283 285 287 288 287 289 289 288 288 288 288 288 286 284 283 283 283 282 282 281 281 281 281 281 282 281 281 280 280 280 280 281 281 281 282 280
281 279 280 280 278 274 271 277 281 281 282 283 284 285 286 287 288 287 289 289 288 288 287 287 286 285 284 283 282 282 281 281 281 280 280 280 281 281 281 281 280 280 279 280 279 279 279 280 280
282 281 281 277 277 276 277 276 284 283 284 285 285 286 286 288 288 287 288 288 286 286 286 286 285 284 283 283 282 282 281 280 279 279 280 281 280 281 280 281 280 279 279 279 279 278 278 279 278
Wind_Speed
6 6 2 5 6 6 1 2 1 3 2 3 2 2 6 5 4 1 4 1 4 6 6 7 16 17 18 18 18 19 19 19 19 19 19 19 20 19 20 22 22 19 19 18 16 15 13 13 13
4 2 5 3 7 4 3 2 4 3 5 7 5 2 5 3 2 3 2 6 7 6 6 7 16 17 18 18 18 18 17 18 19 19 19 19 19 19 20 20 22 22 21 20 20 18 16 13 11
1 3 5 5 4 4 4 2 4 3 8 2 4 5 2 1 2 2 4 6 8 8 7 9 17 18 17 17 16 16 18 17 17 18 18 19 20 20 20 21 21 21 23 23 20 21 19 15 13
3 5 5 6 3 1 3 4 3 4 3 5 3 6 3 1 1 4 6 7 8 7 6 13 18 18 17 17 16 18 17 17 18 18 18 19 20 21 21 21 20 21 21 22 24 22 21 19 16
4 4 5 5 1 2 1 4 5 3 3 2 1 5 4 3 6 7 8 8 8 6 6 8 18 17 16 14 14 15 16 17 17 18 19 20 20 21 21 20 20 21 22 21 21 23 22 21 18
5 4 5 3 1 2 1 4 5 3 2 2 5 4 3 2 5 4 6 7 5 6 8 8 12 14 16 14 16 16 16 17 17 18 19 21 22 21 21 21 21 21 21 21 22 22 23 23 19
6 5 4 4 5 1 4 4 6 5 4 2 7 5 1 1 4 4 7 7 7 7 6 6 6 9 12 12 15 15 15 15 16 17 18 19 19 20 22 22 21 21 22 22 22 21 21 22 21
6 6 5 2 6 4 4 2 3 3 1 2 2 4 4 2 4 4 6 8 7 6 6 7 7 6 6 5 12 14 15 17 17 17 18 18 16 17 17 19 20 23 23 22 22 22 21 20 21
3 6 3 7 7 4 5 4 2 2 6 3 3 3 4 5 4 8 6 6 5 7 6 5 6 6 6 5 7 11 15 17 18 17 20 15 10 12 12 16 21 22 22 22 21 20 20 21 20
6 4 7 6 4 5 6 4 7 4 3 2 3 4 5 6 6 7 7 6 7 8 7 5 6 7 6 6 8 7 8 7 8 10 11 9 11 11 16 14 20 20 20 19 20 20 19 13 4
2 4 3 1 4 5 6 4 3 8 4 7 9 8 4 4 6 6 5 4 4 5 6 8 8 8 8 6 5 4 5 6 6 10 11 11 9 9 8 7 7 8 13 7 10 9 7 8 5
6 2 2 1 4 5 7 6 4 5 3 2 9 8 5 6 5 4 5 5 6 6 8 9 8 8 8 4 4 4 5 6 7 9 11 9 6 8 8 7 9 7 6 9 7 6 9 11 7
5 2 4 3 6 6 5 2 4 5 3 7 9 7 8 6 5 4 4 5 6 7 7 7 7 8 7 6 5 6 6 7 8 8 9 9 8 9 8 8 7 7 7 7 7 8 8 10 9
3 4 3 3 3 3 4 2 1 3 6 7 8 8 6 6 5 3 5 5 6 6 7 7 7 7 7 6 7 6 6 7 7 8 9 12 9 8 8 9 10 8 6 7 7 7 7 8 8
5 4 3 1 2 2 3 5 8 6 8 8 7 6 6 5 5 5 4 5 5 3 6 7 6 6 6 6 7 6 6 7 7 8 10 12 10 11 11 9 10 11 11 12 8 7 6 6 5
5 4 1 1 4 0 5 10 1 8 11 10 9 7 7 5 4 4 5 4 4 4 6 5 5 6 6 6 5 5 5 5 6 7 8 13 13 14 9 10 11 11 10 9 9 9 8 8 8
6 3 4 2 7 3 3 8 0 6 8 9 8 8 7 6 4 4 5 5 4 4 5 6 6 6 6 6 4 5 6 6 6 8 8 13 14 15 10 10 11 12 11 11 10 9 10 9 9
6 4 4 4 5 2 3 15 6 5 7 10 9 9 8 8 8 7 7 6 5 4 5 5 5 6 5 3 4 4 5 6 6 8 9 13 11 14 12 10 13 12 12 13 13 12 10 10 11
6 5 3 3 4 5 7 12 10 8 8 10 10 10 11 10 7 6 6 6 6 5 6 6 6 6 4 3 2 3 4 5 7 7 12 12 13 14 14 10 12 12 12 12 15 13 14 13 14
4 2 4 1 2 5 2 13 10 11 13 18 17 14 14 8 8 7 6 4 5 5 5 6 6 6 4 3 2 1 2 3 3 6 9 12 13 14 13 13 11 13 10 15 16 15 11 9 13
1 5 3 3 1 3 4 10 5 5 8 9 14 13 16 18 15 10 8 7 6 5 5 6 6 6 6 6 3 3 2 3 4 7 7 10 12 13 13 13 11 12 11 11 12 14 17 10 10
3 2 1 3 2 4 2 9 6 5 8 9 15 16 17 16 11 10 9 7 7 5 6 6 6 5 6 6 4 6 4 4 3 3 5 8 12 13 12 12 11 11 9 13 11 11 10 11 12
3 1 3 2 2 3 3 1 7 1 7 13 18 18 18 17 15 13 11 10 5 7 6 5 5 5 6 7 7 5 4 3 2 2 7 9 9 12 12 12 12 11 9 10 12 13 15 11 9
4 3 4 4 2 1 4 6 2 6 10 7 1 11 14 15 12 10 8 9 6 5 6 5 6 5 6 7 7 6 5 4 4 5 6 6 6 7 11 11 10 10 10 11 9 10 12 11 11
2 4 3 5 4 7 3 1 10 14 8 5 5 9 15 16 14 14 14 11 9 7 7 6 6 6 6 7 7 6 6 5 7 5 5 6 6 5 8 9 10 8 9 9 8 9 10 9 9
2 4 6 7 3 5 3 7 9 7 4 7 3 9 13 13 13 14 14 12 11 10 8 7 6 7 6 6 7 5 6 4 4 5 4 4 3 5 6 8 9 9 9 8 8 6 7 7 8
3 4 2 4 2 2 5 8 12 4 4 5 5 8 11 13 12 14 13 11 11 9 9 8 8 6 6 6 6 6 6 5 5 5 4 4 4 6 6 7 8 8 8 9 8 8 10 9 9
1 1 4 3 1 6 5 5 8 8 8 1 4 7 6 7 10 10 11 10 7 9 7 8 7 8 6 7 6 6 5 5 5 4 5 5 5 5 5 7 8 9 9 10 9 9 10 11 9
2 1 2 1 4 4 3 7 7 4 3 4 8 9 11 11 11 12 11 10 9 7 7 7 7 8 7 6 6 6 5 5 5 4 4 5 4 5 5 8 8 9 10 10 9 10 11 13 10
2 4 5 5 4 4 2 10 2 2 4 3 4 6 6 7 9 10 11 12 11 10 10 9 8 7 7 7 7 6 5 5 5 5 5 4 5 5 5 6 8 9 9 9 10 10 9 9 11
Wind_Direction
330 326 93 43 58 66 27 148 59 118 80 355 17 77 109 69 47 122 207 321 342 19 11 351 6 358 356 356 352 350 347 347 347 342 340 339 335 334 330 327 329 322 303 269 266 266 267 269 279
340 2 44 77 83 83 273 295 151 152 138 124 75 56 37 78 62 102 69 345 27 32 13 355 5 360 357 355 353 349 349 350 346 344 342 340 337 336 332 326 319 320 317 303 271 260 258 256 266
347 21 78 84 97 139 173 194 146 100 140 124 103 54 65 55 44 78 350 25 46 30 18 3 6 0 356 352 353 354 352 349 350 349 347 344 341 340 336 332 326 319 314 316 304 275 262 244 237
58 16 34 75 64 313 182 160 135 98 62 51 110 65 37 345 54 29 34 54 50 28 15 9 7 4 1 357 359 357 352 352 356 351 348 347 343 338 333 328 326 325 318 310 308 306 281 260 240
38 59 59 70 31 346 29 154 153 96 87 50 32 167 120 358 47 50 54 46 42 21 16 10 12 9 5 358 3 354 356 359 356 356 353 350 347 340 334 331 328 325 321 319 318 320 303 279 256
47 89 66 142 226 342 29 183 142 93 112 145 75 107 177 347 60 47 59 55 46 36 18 7 0 3 2 1 4 2 2 4 1 359 359 354 348 344 341 337 331 329 323 316 312 315 315 312 277
106 78 131 126 166 241 197 143 141 143 116 56 150 121 262 53 112 80 57 47 36 30 14 350 344 346 339 348 4 2 2 4 1 360 358 357 352 347 343 338 336 329 325 319 315 311 311 300 301
102 93 107 149 182 232 185 77 112 68 97 93 64 184 211 167 91 67 54 34 28 12 356 354 337 321 317 306 357 5 8 6 3 357 353 352 348 343 337 337 331 327 325 321 311 311 309 297 308
114 66 153 183 153 210 175 126 36 52 100 59 12 117 126 109 65 41 21 5 12 5 342 330 328 332 325 339 355 2 4 4 2 360 359 353 346 338 329 326 330 329 323 322 316 309 307 304 295
75 101 202 172 188 188 169 151 153 127 116 54 64 50 79 64 59 52 26 1 1 350 338 356 348 353 349 354 9 359 356 357 359 358 357 353 341 336 336 322 323 324 320 316 319 320 313 313 308
63 134 157 15 221 149 143 123 147 130 223 197 188 170 144 88 62 62 36 12 337 312 347 354 1 354 359 352 0 359 359 1 354 357 359 345 339 331 328 322 318 314 315 312 311 309 304 295 260
86 63 123 28 118 119 160 126 162 198 233 233 162 150 131 114 85 72 46 14 359 359 357 353 357 354 353 353 354 354 7 2 1 359 352 342 333 324 323 320 315 312 313 311 308 305 302 299 277
86 130 56 81 100 96 118 106 239 227 109 106 126 128 137 129 114 84 67 30 14 14 354 352 360 360 347 1 5 12 9 7 2 355 348 347 339 332 327 333 319 311 312 313 311 308 310 309 309
85 92 81 24 104 95 142 201 139 193 149 135 141 151 143 141 142 108 55 34 23 10 357 350 6 3 358 1 9 21 2 11 5 353 352 357 347 344 345 349 348 334 316 314 306 308 313 305 294
112 76 31 208 173 119 133 280 233 171 155 166 170 155 143 136 113 97 91 65 32 2 357 1 10 7 8 359 16 24 13 16 4 359 355 352 352 358 358 358 358 356 353 346 340 329 320 314 340
68 60 102 234 153 129 109 265 336 168 157 190 184 173 161 156 146 131 104 86 51 38 25 8 16 9 21 19 12 18 2 9 9 4 360 358 359 7 10 6 5 354 354 355 357 1 23 7 357
11 208 203 278 196 123 169 263 127 167 177 195 193 183 176 164 171 148 136 121 88 64 37 28 19 23 21 22 20 21 16 15 13 15 12 6 6 7 6 13 6 1 4 4 1 4 12 2 349
198 221 244 247 207 169 200 261 269 209 195 205 198 191 187 189 195 178 158 141 115 72 53 46 32 26 16 24 19 17 32 21 20 22 20 14 12 11 13 14 15 11 11 11 7 1 8 13 351
139 158 210 221 176 152 226 267 266 214 219 230 211 196 196 196 188 173 165 151 130 78 66 47 47 26 24 23 1 347 31 18 21 22 21 19 16 16 20 17 17 17 19 13 7 5 9 15 1
143 123 264 24 133 179 329 271 251 196 221 213 209 200 191 176 177 181 168 156 126 116 87 66 55 46 28 30 358 349 7 32 12 16 24 24 22 20 24 19 18 19 16 18 17 16 8 13 10
231 169 215 237 113 234 354 283 253 254 238 215 216 202 193 180 178 180 170 166 141 117 101 80 65 55 42 28 21 16 23 24 13 15 22 24 24 24 24 24 24 21 25 20 18 16 19 18 16
215 187 146 145 116 240 81 278 293 237 242 222 215 195 186 180 177 167 164 162 153 141 115 93 77 67 63 48 51 53 48 57 346 341 20 30 28 25 23 24 26 31 26 27 19 19 25 21 27
224 104 136 116 125 18 244 338 256 358 261 244 214 200 190 174 167 169 169 151 155 138 123 105 87 77 72 64 58 60 57 52 348 6 47 34 31 30 21 22 24 27 29 29 25 23 25 28 28
151 93 58 61 108 302 251 158 247 218 225 264 100 184 170 162 159 153 143 136 142 140 127 118 104 81 73 75 69 67 67 55 59 35 51 34 31 27 25 25 24 26 28 27 25 25 30 32 30
97 84 325 335 356 237 350 16 264 270 274 266 175 165 166 166 155 153 156 155 149 153 138 131 122 100 92 89 81 69 66 52 58 37 42 46 35 32 22 29 31 29 27 27 27 25 28 24 25
172 151 166 236 244 284 307 245 252 235 341 327 197 154 157 164 160 164 162 160 156 155 152 132 131 117 107 99 92 77 65 53 55 56 53 48 38 40 20 40 39 35 25 21 22 26 27 22 29
190 208 153 82 51 19 248 297 283 54 17 24 116 148 170 165 166 163 158 161 154 156 152 149 138 127 120 114 104 86 73 65 65 40 57 45 38 59 36 42 49 39 33 26 21 27 24 23 23
192 354 68 354 266 278 284 275 248 329 327 249 179 180 178 164 159 159 156 155 158 152 145 142 143 138 131 120 112 103 96 87 74 50 60 64 52 40 43 49 50 41 33 33 33 31 25 33 22
129 200 37 121 168 203 287 260 211 253 327 248 225 201 179 179 173 164 160 154 154 145 142 143 140 140 136 127 118 109 104 92 84 64 49 52 60 47 38 58 54 47 36 25 37 40 30 35 19
175 202 170 146 221 257 272 264 189 270 314 278 255 181 181 181 174 168 161 154 157 160 155 160 151 149 145 140 126 117 116 100 85 79 57 42 62 53 50 62 62 54 40 22 32 38 24 24 18